Flag for U.S.A. Weather past 2 weeks in Wailuku, Hawaii, U.S.A.

Now
83 °F

Scattered clouds.


Feels Like: 87 °F
Forecast: 73 / 88 °F
Wind: 8 mph from North

Location: Kahului Airport

Current Time: Aug 29, 2014 at 10:39:10 AM

Latest Report: Aug 29, 2014 at 8:54 AM


Visibility: 10 mi

Pressure: 29.95 "Hg

Humidity: 65%

Dew point: 70 °F

Location of WailukuLocation

Historic Weather in Wailuku — Graph

°F

Wailuku temperature yesterday

Maximum temperature yesterday: 87 °F (at 12:54 PM)
Minimum temperature yesterday: 72 °F (at 12:54 AM)
Average temperature yesterday: 80 °F

Past Weeks' High & Low Weather Summary

 TemperatureHumidityPressure
High90 °F (Aug 14, 1:54 PM)94% (Aug 21, 4:06 AM)30.06 "Hg (Aug 21, 4:06 AM)
Low65 °F (Aug 15, 5:54 AM)37% (Aug 14, 1:54 PM)29.86 "Hg (Aug 28, 3:54 PM)
Average80 °F66%29.97 "Hg
* Reported Aug 14 8:54 AM — Aug 29 8:54 AM, Wailuku, Weather by CustomWeather, © 2014

Note: Actual official high and low records may vary slightly from our data, if they occured in-between our weather recording intervals... More about our weather records

Advertising

Wailuku weather history for previous 24 hours

 ConditionsComfort  
Time TempWeatherWind HumidityBarometerVisibility
8:54 AM
Aug 29
83 °FScattered clouds.8 mph65%29.95 "Hg10 mi
7:54 AM80 °FPassing clouds.6 mph69%29.94 "Hg10 mi
6:54 AM74 °FPassing clouds.No wind79%29.94 "Hg10 mi
5:54 AM69 °FPassing clouds.No wind84%29.93 "Hg10 mi
4:54 AM71 °FClear.No wind78%29.92 "Hg10 mi
3:54 AM70 °FClear.No wind84%29.91 "Hg10 mi
2:54 AM76 °FClear.6 mph77%29.91 "Hg10 mi
1:54 AM76 °FPassing clouds.7 mph77%29.91 "Hg10 mi
12:54 AM76 °FClear.7 mph77%29.92 "Hg10 mi
11:54 PM
Aug 28
77 °FOvercast.6 mph71%29.93 "Hg10 mi
10:54 PM76 °FPartly cloudy.No wind77%29.93 "Hg10 mi
9:54 PM77 °FPassing clouds.10 mph66%29.93 "Hg10 mi
8:54 PM77 °FPassing clouds.6 mph74%29.91 "Hg10 mi
7:54 PM78 °FPassing clouds.7 mph74%29.90 "Hg10 mi
6:54 PM79 °FPassing clouds.14 mph72%29.88 "Hg10 mi
5:54 PM80 °FScattered clouds.16 mph67%29.87 "Hg10 mi
4:54 PM84 °FScattered clouds.20 mph61%29.86 "Hg10 mi
3:54 PM85 °FScattered clouds.18 mph59%29.86 "Hg10 mi
2:54 PM86 °FScattered clouds.18 mph57%29.87 "Hg10 mi
1:54 PM86 °FScattered clouds.17 mph57%29.88 "Hg10 mi
12:54 PM87 °FScattered clouds.16 mph55%29.90 "Hg10 mi
11:54 AM86 °FScattered clouds.15 mph59%29.92 "Hg10 mi
10:54 AM85 °FScattered clouds.14 mph59%29.94 "Hg10 mi
Weather by CustomWeather, © 2014

See weather overviewHow to use our weather pages